Kemmerer, WY

2:02 PM MDT on June 26, 2017 (GMT -0600)
Kemmerer Municipal

Weather History for KEMM - October, 2013

Change the Weather History Date:

Friday, October 18, 2013

  Actual Average Record
Temperature  
Mean Temperature 38 °F -  
Max Temperature 44 °F 53 °F 78 °F (1952)
Min Temperature 33 °F 23 °F 14 °F (1951)
Degree Days  
Heating Degree Days 26    
Moisture  
Dew Point 15 °F    
Average Humidity 36    
Maximum Humidity 60    
Minimum Humidity 27    
Precipitation  
Precipitation 0.00 in - - ()
Sea Level Pressure  
Sea Level Pressure 30.23 in    
Wind  
Wind Speed 12 mph (WNW)    
Max Wind Speed 21 mph    
Max Gust Speed 29 mph    
Visibility 10 miles    
Events      
Averages and records for this station are not official NWS values.
T = Trace of Precipitation, MM = Missing Value Source: NWS Daily Summary

Daily Weather History Graph

Daily Weather History Graph

Search for Another Location

Airport or City:

Trip Planner

Search our weather history database for the weather conditions in past years. The results will help you decide how hot, cold, wet, or windy it might be!

Date:

Astronomy

Oct. 18, 2013 Rise Set
Actual Time 7:38 AM MDT 6:35 PM MDT
Civil Twilight 7:10 AM MDT 7:03 PM MDT
Nautical Twilight 6:37 AM MDT 7:36 PM MDT
Astronomical Twilight 6:05 AM MDT 8:08 PM MDT
Moon 6:27 PM MDT (10/18) 7:17 AM MDT (10/18)
Length of Visible Light 11h 53m
Length of Day
10h 57m
Full, 100% of the Moon is Illuminated
Oct 18
Full
Oct 18
Full
Oct 26
Last Quarter
Nov 3
New
Nov 9
First Quarter

Hourly Weather History & Observations

Time (MDT) Temp. Windchill Dew Point Humidity Pressure Visibility Wind Dir Wind Speed Gust Speed Precip Events Conditions
10:35 AM 33.8 °F 29.6 °F 21.2 °F 60% 30.27 in 10.0 mi West 4.6 mph - N/A   Clear
11:15 AM 37.4 °F 32.8 °F 19.4 °F 48% 30.26 in 10.0 mi WNW 5.8 mph - N/A   Clear
11:55 AM 39.2 °F 33.0 °F 15.8 °F 39% 30.25 in 10.0 mi WNW 9.2 mph 16.1 mph N/A   Clear
12:15 PM 41.0 °F 33.9 °F 15.8 °F 36% 30.25 in 10.0 mi West 12.7 mph 19.6 mph N/A   Clear
12:35 PM 41.0 °F 34.7 °F 14.0 °F 33% 30.25 in 10.0 mi WNW 10.4 mph 17.3 mph N/A   Clear
12:55 PM 41.0 °F 32.8 °F 14.0 °F 33% 30.25 in 10.0 mi West 16.1 mph 21.9 mph N/A   Clear
1:15 PM 41.0 °F 33.5 °F 14.0 °F 33% 30.24 in 10.0 mi West 13.8 mph - N/A   Clear
1:35 PM 41.0 °F 31.9 °F 17.6 °F 39% 30.24 in 10.0 mi West 19.6 mph 24.2 mph N/A   Clear
1:55 PM 42.8 °F 35.4 °F 15.8 °F 34% 30.23 in 10.0 mi WNW 15.0 mph 23.0 mph N/A   Clear
2:15 PM 42.8 °F 35.8 °F 17.6 °F 36% 30.22 in 10.0 mi WNW 13.8 mph 24.2 mph N/A   Clear
2:35 PM 42.8 °F 34.5 °F 15.8 °F 34% 30.22 in 10.0 mi WNW 18.4 mph 24.2 mph N/A   Clear
2:55 PM 42.8 °F 34.5 °F 15.8 °F 34% 30.22 in 10.0 mi WNW 18.4 mph 28.8 mph N/A   Clear
3:15 PM 44.6 °F 36.9 °F 15.8 °F 31% 30.22 in 10.0 mi WNW 18.4 mph 24.2 mph N/A   Clear
3:35 PM 44.6 °F 37.4 °F 12.2 °F 27% 30.22 in 10.0 mi West 16.1 mph 25.3 mph N/A   Clear
3:55 PM 44.6 °F 36.4 °F 12.2 °F 27% 30.22 in 10.0 mi West 20.7 mph 26.5 mph N/A   Clear
4:15 PM 44.6 °F 36.9 °F 12.2 °F 27% 30.22 in 10.0 mi WNW 18.4 mph - N/A   Clear
4:35 PM 44.6 °F 37.4 °F 12.2 °F 27% 30.21 in 10.0 mi West 16.1 mph 24.2 mph N/A   Clear
4:55 PM 44.6 °F 36.9 °F 12.2 °F 27% 30.22 in 10.0 mi WNW 18.4 mph 25.3 mph N/A   Clear
5:15 PM 42.8 °F 35.1 °F 14.0 °F 31% 30.22 in 10.0 mi WNW 16.1 mph 23.0 mph N/A   Clear
5:35 PM 42.8 °F 34.8 °F 14.0 °F 31% 30.22 in 10.0 mi WNW 17.3 mph 21.9 mph N/A   Clear
5:55 PM 41.0 °F 34.3 °F 14.0 °F 33% 30.23 in 10.0 mi WNW 11.5 mph 20.7 mph N/A   Clear
6:15 PM 39.2 °F 33.0 °F 14.0 °F 36% 30.23 in 10.0 mi WNW 9.2 mph - N/A   Clear
6:35 PM 37.4 °F 34.9 °F 15.8 °F 41% 30.23 in 10.0 mi NNW 3.5 mph - N/A   Clear
6:55 PM 35.6 °F - 17.6 °F 48% 30.24 in 10.0 mi Calm Calm - N/A   Clear
8:15 PM 33.8 °F 25.3 °F 19.4 °F 56% 30.25 in 10.0 mi West 11.5 mph - N/A   Clear